Погода в Вязьме

Погода в Вязьме : погода сейчас, прогноз погоды и архив. Всё, что Вы хотите узнать о погоде в Вязьме!

Поиск расширенной информации на нашем сайте:

Другие новости

Новости СМИ2

Главная страница сайта

Новости сайта

02.10.2013

Напоминаем, что на нашем новом сайте вы можете получить высокодетализированные прогнозы погоды по пунктам России, СНГ и мира (включающие важные для авиации метеовеличины, такие как направление и скорость ветра, видимость, явления погоды, количество и форма облачности, нижняя и верхняя граница облачности), а также ознакомиться с разнообразными материалами по авиационной метеорологии и подборкой полезных ссылок на эту тему.

Сайт Метеоцентр.Азия посвящён разработке технологий оптимизации авиаметеорологического обслуживания, включая проектирование и перспективное создание нескольких автоматизированных авиаметеорологических систем:
- система выпуска высокодетальных прогностических карт явлений погоды для нижнего воздушного пространства по России и ближнему зарубежью;
- система верификации прогнозов TAF (выпускаемых синоптиками официальных АМСГ РФ и ближнего зарубежья) и AUTOTAF (выпускаемых сайтом Метеоцентр.Азия) - выявление ошибок, онлайн-сопоставление с фактической погодой METAR, автоматическое внесение коррективов в прогнозы при резком отклонении фактической погоды от прогноза, подсчёт оправдываемости прогнозов по элементам и в целом;
- система обработки, анализа и отображения авиаметеорологической информации для применения провайдерами метеорологической информации.


Погода в Вязьме - сегодня

Время (UTC), дата Ветер
(°,м/с) 
Видим.   Явления Облачность Т
(°С)
Тd
(°С)
f(%) Тe
(°С)
Pmin
(гПа)
dP
(гПа)
Po
(мм)
O2
(г/м3)
Тmin Tmax R s Состояние
почвы
06 26.03.17 290 (З) 10 км    9/0 средняя, верхняя 
[Ac trans|Cc]
+1.2 -5.4 61 +1  1018.7  1.1  741  298  -5.5         
09 26.03.17 290 (З) 10 км    6/6 800 м 
[Sc diur, vesp]
+5.3 -10.9 30 +6  1017.8  -0.4  741  294           
12 26.03.17 280 (З) 10 км    9/9 800 м 
[Sc]
+4.6 -10.3 33 +2  1016.5  -1.4  740  294           
15 26.03.17 270 (З) 10 км    10/10 800 м 
[Sc]
+3.6 -7 46 +1  1013.6  -2.9  737  294           
18 26.03.17 250 (З) 6-11{11}  10 км    10/10 540 м 
[Sc]
+1.7 -3.1 70 -1  1009.9  -3.8  735  294    +5.5       
21 26.03.17 240 (ЮЗ) 7-12{12}  4000 м  слаб. снег  10/8 300 м средняя 
[Frnb|As op]
+0.3 -0.2 96 -4  1003.9  -5.9  730  294           
00 27.03.17 270 (З) 7-13{15}  4000 м  слаб. снег  10/8 270 м средняя 
[Frnb|As op]
+0.5 +0.2 98 -3  998.3  -5.4  726  292           
03 27.03.17 310 (СЗ) 6-13{13}  10 км  {снег}  9/9 240 м 
[St]
+1.4 -0.7 86 -2  998.3  0.1  726  291  +0.2       
06 27.03.17 320 (СЗ) 7-13{15}  10 км  {снег}  10/10 450 м 
[Sc]
+1.8 -2.6 73 -2  1000.6  2.2  728  292  +0.2    равномерный
мокрый или
старый снег
100% 
09 27.03.17 330 (СЗ) 9-14{15}  10 км    8/8 540 м 
[Sc]
+3.7 -4.6 55 1002.6  2.1  729  290           
12 27.03.17 340 (С) 8-13{16}  10 км    9/9 600 м 
[Sc]
+4.5 -5.8 47 +1  1004.1  1.6  731  290           
15 27.03.17 320 (СЗ) 6-10{13}  10 км    6/3 600 м верхняя 
[Sc|Ci fib]
+5.9 -6.3 41 +4  1004.1  0.2  731  289           
18 27.03.17 280 (З) 3{10}  10 км    10/10 570 м 
[Sc]
+4.2 -5.2 50 +3  1003.3  -0.9  730  290    +6.2       
21 27.03.17 270 (З) 3{13}  4000 м  слаб. снег  10/8 300 м средняя 
[Frnb|As op]
+1.3 -0 91 1001  -2.5  728  292           
00 28.03.17 260 (З) 5{12}  4000 м  слаб. дождь{снег}  10/8 300 м средняя 
[Frnb|As op]
+2.7 +1.7 93 995.4  -5.3  724  289           
03 28.03.17 300 (СЗ) 6-11{11}  10 км  {дождь}  10/8 420 м средняя 
[Sc|Ac und]
+4.1 +1 80 +1  994.1  -1.1  723  287  +0.6    0.9     
06 28.03.17 310 (СЗ) 7-13{16}  10 км  {ливн. осадки, дождь}  10/8 540 м средняя 
[Sc|Ac und]
+2.3 -1.9 74 -1  996.9  2.5  725  290  +0.6    0.9     
09 28.03.17 320 (СЗ) 9-15{17}  10 км  в посл. час ливневой снег  9/8 630 м кучево-дожд., средняя 
[Cb calv|Ac trans]
+2.6 -4.6 59 -1  1001.3  4.3  728  291           
12 28.03.17 330 (СЗ) 9-15{18}  10 км  в посл. час ливневой снег  8/6 660 м кучево-дожд., средняя 
[Cb calv|Ac trans]
+3.9 -9.3 37 1004.4  3.1  731  291           
15 28.03.17 320 (СЗ) 7-12{16}  10 км    8/6 600 м средняя, верхняя 
[Sc|Ac trans|Ci fib]
+3.5 -11.4 33 1006.8  2.3  732  292      0.0     
18 28.03.17 300 (СЗ) 4{12}  10 км    9/9 630 м 
[Sc]
+1.5 -5.8 58 -1  1008.8  1.7  734  295    +4.6  0.0     
21 28.03.17 270 (З) 10 км    4/4 300 м 
[Sc]
-0.8 -3.1 84 -3  1009.2  0.1  734  297           
00 29.03.17 280 (З) 10 км  в посл. час ливневой снег  6/6 450 м 
[Sc]
-1.5 -3.2 88 -3  1009.9  0.6  734  298           
03 29.03.17 320 (СЗ) 4{12}  10 км    9/9 480 м 
[Sc]
-2 -5.9 75 -5  1012.4  2.4  736  299  -2    0.1     
06 29.03.17 340 (С) 10 км    3/3 600 м 
[Sc]
-1.8 -7.6 65 -5  1014.6  2.1  738  300  -2.7    0.0  <0.5  равномерный
сухой снег
100% 
Время (UTC), дата Ветер
(°,м/с) 
Видим.   Явления Облачность Т
(°С)
Тd
(°С)
f(%) Тe
(°С)
Pmin
(гПа)
dP
(гПа)
Po
(мм)
O2
(г/м3)
Тmin Tmax R s Состояние
почвы

Для получения пояснительной информации подведите курсор к названию столбца.

ПОГОДА в Вязьме - архив

Всё, что Вы хотите узнать о погоде в Вязьме - удобно и подробно!

Выберите нужную дату (начиная с 1 января 2015* года) и нажмите кнопку "Найти".
Будут отображены архивные сводки погоды по пункту Вязьма, начиная с указанной даты.


Отображать данные в формате CSV (для использования в таблицах Excel)


Внимание! Наш архив погоды предназначен исключительно для личного некоммерческого использования в познавательных целях. Если Вам необходимы официальные справки о состоянии погоды (для производственных, юридических, коммерческих и т.п. целей), обращайтесь в органы Росгидромета.

*Примечание: данная дата относится к архиву по метеостанциям СССР (Россия, СНГ, Балтия).
Архив по метеостанциям Зарубежной Европы и Азии (кроме Китая) хранится 10 дней, по другим регионам земного шара (Китай, Африка, Америка, Австралия, Океания) - 1 день.

Вязьма - район местоположения метеостанции


Название, широта, долгота, высота метеостанции:
Вязьма 55.2°ш. 34.4°д. 251 м над ур. моря [Российская Федерация]

Дополнительная информация

В oтличие oт бoльшинства пoгoдных сайтoв мы публикуем пoдрoбную метеoинфoрмацию в детальнoм прoфессиoнальнoм фoрмате.

Характеристики температуры и влажнoсти вoздуха измеряются на высoте 2 м в тени вдали oт зданий и деревьев.
Скoрoсть ветра измеряется на высoте 10 м (на урoвне рoста челoвека скoрoсть ветра ниже в 1.5-2 раза). Если метеoстанция нахoдится в гoрoде или в лесу, тo скoрoсть ветра занижена на 2-4 м/с пo сравнению с oткрытым местoм. Скoрoсть ветра над акватoриями крупных рек и oзёр, а также на вершинах хoлмoв на 2-5 м/с выше, чем в oбычных услoвиях.
Атмoсфернoе давление в разных тoчках местнoсти мoжет значительнo oтличаться oт давления на метеoстанции, в зависимoсти oт услoвий рельефа (при пoдъёме на 10 м давление пoнижается примернo на 1 мм рт.ст.).